Zurück zum Katalog

COSMOS 1275 DEB

LostPO
NORAD 42132·DEBRIS·🇷🇺 Russia

Gestartet Jun 4, 1981 von Plesetsk Cosmodrome

Loading…

Nächste Überflüge (nächste 24 Stunden)

TLE

VeraltetSource: Space-Track

Epoche: Mar 22, 2024, 17:54 UTC

1 42132U 81053QU  24082.74633424  .00002118  00000-0  23367-2 0  9993
2 42132  83.1473  92.1714 0139328 317.6894  41.3575 13.67478621 17488

Verfolge COSMOS 1275 DEB in Echtzeit mit AllMySat

Download on the App Store